Wind_Speed
87 86 83 80 78 75 73 73 73 73 75 76 79 86 91 96 97 96 93 94 96 94 93 96 95 102 103 99 99 95 90 89 87 83 87 88 83 82 75 66 66 54 51
80 75 70 69 66 64 62 61 62 64 65 64 64 68 72 75 77 79 80 81 89 93 98 98 102 106 111 108 101 96 96 96 92 88 92 96 91 86 83 74 66 55 56
74 70 66 62 60 58 55 55 54 55 56 55 56 57 59 62 64 65 63 70 78 91 96 98 102 105 115 116 109 99 102 97 101 99 101 103 99 88 86 81 71 63 60
72 67 64 61 58 52 47 48 47 46 47 48 49 52 53 55 55 55 57 63 69 79 87 94 100 108 110 117 114 108 103 101 103 101 101 103 101 95 91 86 79 67 65
63 59 59 55 51 47 43 42 40 39 40 42 43 46 48 49 49 51 58 64 69 70 76 83 94 103 106 110 110 110 103 96 104 103 97 96 94 92 90 85 83 76 70
58 55 52 48 44 41 37 36 34 34 34 36 37 40 42 43 44 48 54 59 56 65 69 71 80 96 105 105 109 111 111 104 100 99 97 93 88 89 89 83 81 77 74
55 53 48 44 43 40 38 33 31 30 30 31 31 34 37 40 42 45 47 44 51 58 62 67 73 88 99 105 107 110 110 109 105 99 94 95 90 89 87 83 83 82 80
54 49 47 43 43 38 36 33 29 29 29 28 29 31 35 37 39 42 43 49 58 59 63 62 66 77 93 98 104 103 103 102 105 99 95 95 91 90 88 82 84 86 80
56 49 46 43 40 39 36 34 29 28 29 29 28 29 31 33 36 39 42 50 57 61 63 51 54 65 79 89 96 97 93 93 100 102 99 98 96 90 88 86 83 80 85
55 52 46 44 41 39 38 35 33 29 29 28 26 27 30 32 35 38 45 52 57 59 56 53 54 49 65 75 86 93 97 92 97 99 99 98 98 97 90 89 86 88 83
52 53 48 45 43 39 40 38 35 32 30 30 30 29 31 33 36 41 47 55 58 57 60 58 58 56 57 61 71 84 92 93 92 93 96 99 97 95 94 93 89 83 77
53 51 50 45 43 40 39 40 38 36 34 34 33 34 35 37 38 43 57 59 60 63 63 65 70 74 71 77 77 76 80 81 83 85 88 89 91 98 92 92 91 85 87
53 49 49 47 43 43 41 40 40 39 38 37 36 37 38 41 43 48 59 66 69 72 73 73 78 80 82 81 81 82 83 87 84 88 92 92 92 86 85 87 85 83 84
50 47 46 48 44 42 43 41 41 41 40 42 39 40 42 45 48 53 62 70 74 76 78 80 86 88 82 84 87 84 85 87 94 91 86 85 88 89 88 85 81 83 81
49 46 45 46 47 43 43 44 43 43 44 43 43 44 44 49 52 55 60 69 73 80 84 87 87 92 91 90 89 92 93 93 94 90 91 93 86 80 84 82 81 82 81
47 46 44 45 47 46 44 44 45 44 44 46 46 47 47 49 54 59 60 65 77 81 83 90 93 97 94 94 95 94 92 90 81 78 79 85 87 86 86 88 80 84 85
44 43 43 43 44 45 45 46 45 46 45 45 47 47 51 52 54 58 62 65 70 78 80 87 96 96 97 97 95 92 93 87 82 78 74 77 77 75 76 81 79 85 88
42 42 42 43 44 45 45 45 46 45 46 47 46 49 51 52 54 57 62 64 66 71 79 85 91 94 97 97 98 96 92 84 82 79 76 80 79 80 81 80 80 79 84
44 44 44 44 44 44 45 44 46 47 46 46 47 48 49 52 53 56 59 63 66 68 72 80 86 93 92 96 96 94 93 89 89 85 83 81 76 83 80 79 80 81 81
43 43 43 45 47 48 46 47 47 45 45 45 45 45 48 50 52 55 56 60 63 67 69 71 75 82 86 89 88 88 89 86 84 82 78 77 77 80 80 78 79 80 80
45 45 45 45 45 45 46 47 48 47 46 44 45 45 45 45 49 52 54 57 59 63 65 69 70 71 74 78 82 82 82 81 80 79 78 77 79 80 80 85 85 87 88
46 45 44 44 41 40 40 41 44 47 47 44 43 44 44 44 45 47 50 53 55 57 60 63 65 68 70 72 73 72 73 74 75 77 77 77 77 79 79 80 80 82 83
44 43 42 42 41 38 37 36 39 42 44 45 44 44 43 43 43 44 45 48 50 53 55 57 60 62 64 65 67 68 68 68 70 71 71 71 73 77 78 78 81 83 86
44 43 42 40 38 36 35 34 36 38 40 42 43 44 44 43 43 43 43 44 45 47 50 52 54 57 59 60 61 62 63 65 65 65 64 63 63 65 68 70 73 74 76
44 42 41 40 37 34 32 32 32 33 36 38 40 41 42 42 43 44 44 44 44 45 46 47 49 50 52 53 54 55 57 57 57 58 59 62 62 61 62 63 64 66 67
44 42 41 40 37 34 32 31 30 30 31 33 36 37 39 40 41 42 43 44 45 44 44 45 45 46 47 48 49 50 51 52 52 53 54 55 56 57 58 58 59 60 61
Wind_Direction
293 293 292 290 287 286 283 279 277 274 269 265 262 260 259 258 257 255 250 245 246 242 235 232 228 227 231 226 227 229 234 235 234 235 239 242 247 249 256 257 256 255 257
297 295 293 290 290 287 284 280 276 273 271 268 264 260 258 257 255 253 248 242 240 239 236 231 228 225 226 230 228 232 230 231 231 234 238 242 244 246 251 254 254 256 256
300 298 296 295 293 290 287 282 277 273 270 267 263 259 256 254 251 250 246 238 234 234 233 231 228 227 225 228 229 226 228 231 233 235 238 241 244 245 248 249 252 255 252
303 302 300 298 295 292 288 281 278 274 271 267 263 259 255 250 247 244 239 234 230 230 231 228 226 225 226 226 229 228 229 230 232 234 238 241 245 247 248 248 248 247 248
302 299 297 295 294 291 287 282 278 273 268 264 260 256 251 248 243 238 233 232 230 228 227 226 223 222 224 223 225 226 227 228 230 232 236 241 244 245 246 245 245 245 243
302 299 298 298 293 289 284 280 276 272 267 265 261 256 252 246 239 237 235 235 232 230 227 225 223 222 222 221 222 224 226 228 231 232 235 238 239 240 243 242 244 240 243
304 304 302 299 294 291 286 282 279 274 268 264 260 255 249 242 238 234 232 229 224 223 223 222 221 220 220 221 222 225 227 227 230 234 234 238 239 241 241 244 243 242 239
307 307 302 297 294 290 286 282 278 274 268 263 257 253 247 240 235 234 228 220 219 217 216 220 220 220 218 220 221 224 227 227 228 230 235 238 240 242 244 244 245 242 243
308 307 301 296 291 287 282 279 273 270 267 261 257 252 245 238 231 230 222 222 220 218 216 216 215 217 220 223 223 224 229 231 230 230 234 238 239 243 243 244 245 244 245
306 304 299 293 289 284 280 275 269 264 262 257 251 247 241 234 229 222 220 216 215 220 213 203 198 207 219 222 225 226 228 230 230 232 234 237 241 242 243 245 245 244 245
302 299 296 290 287 283 280 273 266 259 254 253 248 239 236 230 224 220 218 212 213 209 202 196 198 204 210 225 224 227 230 230 232 235 237 240 242 245 246 245 245 245 245
296 293 292 288 284 281 277 273 268 261 253 252 248 237 229 227 224 218 208 211 212 200 197 198 201 201 205 218 223 225 231 233 233 235 237 239 241 245 246 247 247 248 247
291 287 285 285 281 278 276 273 272 264 256 252 246 239 232 224 220 216 211 209 207 207 206 201 201 205 210 217 221 227 230 231 236 238 241 242 242 244 246 249 249 250 249
289 285 281 281 280 275 273 270 268 266 261 250 249 243 233 229 225 218 214 214 215 210 209 211 212 210 215 220 223 228 233 237 236 237 239 243 245 245 246 247 249 249 249
290 287 282 279 279 276 271 269 266 262 260 255 246 244 240 232 229 226 223 220 219 215 215 217 216 215 220 223 226 227 232 238 241 242 242 241 243 244 246 245 245 246 245
292 289 285 281 280 277 272 266 266 263 259 256 252 245 241 238 233 230 229 224 221 220 223 220 218 219 222 226 230 233 236 241 245 245 246 247 246 242 243 240 240 243 245
296 292 287 282 279 278 278 276 267 263 261 256 255 252 246 241 238 235 232 230 226 228 230 226 224 225 227 229 231 234 237 241 242 244 246 250 250 251 245 245 244 244 241
301 297 293 290 286 282 279 277 274 268 264 264 257 254 251 249 243 238 236 237 235 231 231 230 229 230 232 233 233 236 239 243 242 245 245 246 251 252 248 247 245 244 244
299 297 293 290 285 281 278 275 274 272 269 264 259 257 255 252 250 245 241 239 239 239 237 235 234 234 236 236 238 240 241 243 245 246 245 245 247 246 245 248 249 250 249
298 294 292 289 286 283 279 276 275 272 268 266 264 260 255 253 250 250 249 245 243 242 242 241 239 239 239 238 240 243 244 244 245 244 242 245 247 244 246 248 249 247 248
305 300 296 292 289 286 284 281 278 275 273 270 266 263 260 255 252 249 248 247 247 246 246 246 245 244 242 242 243 244 244 245 246 244 244 244 246 241 245 245 243 245 245
308 305 301 298 295 291 286 281 277 275 274 270 267 265 262 259 254 251 249 249 248 247 247 247 247 248 248 248 248 247 247 247 246 246 245 244 243 241 242 242 244 244 245
311 308 306 304 301 296 290 284 277 273 272 271 268 264 261 259 257 255 252 248 247 248 248 247 247 248 248 249 250 250 251 250 250 249 249 249 248 247 247 248 248 248 246
314 313 311 309 306 301 294 287 280 275 271 271 269 267 263 259 256 255 253 252 250 248 247 247 247 248 248 249 249 250 250 250 251 251 251 251 250 251 250 250 250 250 251
318 317 315 313 311 306 299 292 286 279 274 271 270 268 266 263 260 257 254 251 250 248 248 248 248 247 247 248 248 248 248 249 249 249 250 251 251 251 249 249 250 249 248
320 319 316 315 313 309 304 299 292 286 280 274 271 269 266 265 264 260 257 255 252 250 248 247 247 246 246 245 245 246 246 246 246 246 247 248 248 248 248 248 248 249 249
Height
10324 10312 10302 10295 10288 10283 10279 10274 10273 10271 10271 10274 10278 10279 10285 10288 10296 10311 10332 10348 10359 10375 10393 10408 10423 10431 10440 10448 10461 10470 10479 10485 10498 10500 10502 10505 10512 10518 10521 10523 10531 10537 10541
10300 10290 10282 10274 10268 10261 10256 10254 10250 10246 10246 10248 10252 10254 10255 10259 10266 10278 10294 10314 10326 10340 10354 10373 10390 10402 10412 10422 10433 10444 10454 10463 10474 10480 10482 10484 10489 10500 10505 10511 10519 10524 10530
10276 10269 10262 10255 10249 10244 10239 10234 10230 10228 10227 10228 10229 10232 10234 10238 10244 10253 10267 10280 10295 10306 10322 10340 10360 10374 10385 10393 10407 10421 10431 10442 10452 10460 10461 10462 10471 10481 10490 10497 10503 10510 10516
10255 10246 10239 10234 10228 10225 10222 10216 10213 10212 10210 10211 10212 10213 10217 10221 10227 10235 10245 10255 10267 10279 10292 10310 10326 10340 10355 10368 10384 10401 10408 10419 10428 10437 10443 10448 10457 10465 10475 10480 10487 10495 10501
10241 10234 10226 10220 10214 10209 10206 10202 10199 10197 10196 10196 10197 10198 10201 10207 10213 10220 10225 10232 10242 10259 10269 10282 10298 10311 10326 10343 10360 10374 10384 10394 10403 10415 10423 10430 10435 10444 10452 10461 10471 10479 10486
10226 10219 10211 10205 10200 10198 10194 10190 10188 10186 10184 10184 10185 10186 10189 10195 10201 10207 10213 10219 10235 10244 10255 10267 10279 10291 10306 10323 10335 10349 10362 10375 10385 10394 10403 10411 10415 10423 10431 10442 10454 10463 10470
10211 10203 10197 10192 10188 10185 10182 10180 10177 10175 10174 10174 10175 10176 10179 10184 10190 10194 10202 10211 10218 10229 10241 10251 10263 10273 10287 10300 10315 10328 10341 10354 10366 10377 10384 10391 10399 10404 10413 10424 10434 10443 10453
10197 10191 10185 10182 10177 10174 10172 10170 10168 10166 10164 10164 10166 10167 10170 10175 10180 10185 10193 10198 10202 10213 10224 10236 10248 10258 10271 10283 10299 10313 10323 10335 10348 10359 10364 10373 10380 10386 10397 10406 10416 10425 10434
10183 10179 10174 10171 10167 10164 10162 10160 10159 10157 10156 10156 10157 10159 10162 10167 10171 10177 10183 10189 10195 10204 10213 10224 10235 10248 10260 10272 10285 10298 10311 10323 10330 10337 10344 10352 10362 10369 10379 10390 10396 10404 10416
10172 10166 10163 10159 10156 10154 10151 10150 10149 10148 10148 10148 10149 10151 10155 10160 10164 10168 10174 10180 10188 10195 10206 10213 10220 10234 10246 10257 10270 10280 10290 10300 10308 10316 10324 10332 10340 10351 10362 10370 10378 10388 10395
10160 10154 10150 10147 10144 10141 10139 10138 10138 10137 10138 10140 10142 10143 10146 10151 10157 10161 10165 10171 10178 10186 10193 10201 10211 10222 10231 10242 10250 10260 10269 10278 10289 10299 10308 10314 10323 10330 10341 10350 10358 10369 10377
10146 10141 10136 10133 10131 10128 10127 10126 10126 10126 10128 10129 10131 10134 10137 10142 10147 10154 10158 10164 10169 10177 10184 10190 10199 10206 10216 10227 10235 10242 10249 10260 10269 10277 10286 10294 10304 10311 10319 10329 10340 10349 10358
10130 10126 10123 10119 10118 10115 10113 10113 10113 10114 10116 10118 10120 10123 10127 10131 10138 10144 10149 10154 10159 10164 10171 10179 10188 10193 10200 10209 10218 10225 10232 10242 10252 10260 10268 10277 10286 10294 10299 10308 10318 10327 10335
10114 10111 10109 10104 10103 10102 10100 10099 10100 10100 10103 10106 10108 10111 10115 10119 10124 10130 10135 10142 10149 10155 10162 10166 10173 10180 10188 10195 10203 10210 10217 10222 10232 10241 10250 10257 10266 10274 10281 10291 10296 10305 10314
10099 10096 10094 10091 10088 10087 10087 10085 10085 10086 10088 10090 10094 10097 10101 10105 10109 10114 10121 10126 10133 10140 10146 10153 10159 10167 10174 10178 10185 10189 10196 10203 10212 10224 10231 10241 10248 10256 10263 10271 10276 10283 10291
10085 10082 10080 10077 10074 10073 10072 10072 10070 10071 10072 10074 10077 10082 10086 10089 10094 10098 10104 10111 10118 10125 10131 10136 10142 10149 10155 10162 10169 10174 10182 10190 10197 10204 10209 10216 10227 10236 10243 10251 10255 10262 10269
10072 10068 10065 10063 10059 10057 10058 10057 10058 10057 10056 10060 10061 10065 10070 10075 10078 10082 10087 10093 10099 10106 10111 10117 10123 10130 10137 10144 10149 10156 10164 10171 10178 10184 10190 10196 10203 10209 10216 10224 10232 10239 10246
10061 10056 10052 10049 10047 10045 10043 10042 10040 10042 10044 10043 10047 10048 10051 10056 10061 10066 10069 10073 10081 10086 10092 10097 10104 10110 10117 10124 10130 10136 10143 10151 10158 10164 10171 10177 10183 10188 10194 10200 10207 10216 10222
10050 10044 10039 10035 10031 10028 10026 10025 10024 10024 10026 10028 10030 10032 10034 10037 10040 10046 10051 10055 10059 10065 10072 10078 10083 10089 10096 10103 10109 10116 10123 10130 10137 10144 10152 10158 10163 10168 10172 10178 10183 10190 10198
10037 10032 10027 10021 10016 10012 10010 10007 10006 10006 10008 10010 10012 10015 10017 10019 10023 10026 10030 10036 10041 10044 10049 10056 10062 10068 10074 10080 10087 10094 10100 10107 10114 10121 10128 10134 10140 10146 10151 10155 10161 10166 10173
10023 10017 10012 10007 10003 9998 9995 9993 9990 9988 9990 9993 9995 9996 9999 10002 10005 10008 10012 10016 10020 10025 10030 10034 10038 10044 10051 10057 10064 10070 10076 10083 10089 10095 10102 10109 10115 10121 10128 10132 10136 10142 10146
10011 10004 9998 9992 9988 9985 9981 9978 9975 9972 9972 9974 9976 9977 9980 9983 9987 9990 9993 9996 10000 10005 10010 10014 10018 10023 10029 10034 10039 10046 10052 10058 10065 10071 10077 10082 10089 10096 10101 10106 10110 10115 10120
9998 9991 9985 9980 9974 9970 9967 9964 9960 9958 9957 9956 9957 9958 9961 9964 9967 9972 9976 9980 9983 9986 9990 9994 9999 10003 10007 10012 10017 10022 10028 10034 10040 10045 10051 10056 10062 10069 10075 10080 10086 10090 10095
9986 9980 9973 9967 9962 9957 9953 9950 9947 9944 9943 9941 9941 9942 9944 9946 9949 9952 9956 9961 9965 9969 9973 9976 9980 9984 9989 9993 9997 10001 10006 10011 10017 10022 10026 10032 10037 10043 10048 10054 10059 10063 10068
9974 9968 9961 9955 9949 9945 9941 9937 9934 9932 9930 9928 9927 9927 9927 9929 9932 9934 9938 9942 9945 9950 9954 9958 9962 9966 9970 9975 9979 9983 9988 9992 9997 10002 10006 10010 10015 10020 10025 10029 10033 10038 10042
9964 9958 9951 9944 9939 9934 9929 9926 9923 9920 9918 9916 9915 9915 9914 9915 9916 9918 9921 9924 9927 9931 9935 9940 9944 9948 9953 9957 9961 9965 9969 9974 9978 9983 9987 9992 9996 10000 10004 10008 10012 10016 10020